Colby, KS

1:29 AM CDT on April 24, 2017 (GMT -0500)
Shaltz

Weather History for KCBK - February, 2014

Change the Weather History Date:

Friday, February 28, 2014

  Actual Average (KGLD) Record (KGLD)
Temperature  
Mean Temperature 36 °F -  
Max Temperature 50 °F 50 °F 81 °F (2006)
Min Temperature 21 °F 23 °F -16 °F (1960)
Degree Days  
Heating Degree Days 30    
Moisture  
Dew Point 27 °F    
Average Humidity 81    
Maximum Humidity 100    
Minimum Humidity 50    
Precipitation  
Precipitation 0.00 in - - ()
Sea Level Pressure  
Sea Level Pressure 29.75 in    
Wind  
Wind Speed 10 mph (NNE)    
Max Wind Speed 30 mph    
Max Gust Speed 36 mph    
Visibility 10 miles    
Events      
Averages and records for this station are not official NWS values.
T = Trace of Precipitation, MM = Missing Value Source: NWS Daily Summary

Daily Weather History Graph

Daily Weather History Graph

Search for Another Location

Airport or City:

Trip Planner

Search our weather history database for the weather conditions in past years. The results will help you decide how hot, cold, wet, or windy it might be!

Date:

Astronomy

Feb. 28, 2014 Rise Set
Actual Time 7:18 AM CST 6:35 PM CST
Civil Twilight 6:51 AM CST 7:02 PM CST
Nautical Twilight 6:20 AM CST 7:33 PM CST
Astronomical Twilight 5:49 AM CST 8:04 PM CST
Moon 6:34 AM CST (2/28) 6:14 PM CST (2/28)
Length of Visible Light 12h 11m
Length of Day
11h 17m
Waning Crescent, 1% of the Moon is Illuminated
Feb 28
Waning Crescent
Mar 1
New
Mar 8
First Quarter
Mar 16
Full
Mar 23
Last Quarter

Hourly Weather History & Observations

Time (CST) Temp. Windchill Dew Point Humidity Pressure Visibility Wind Dir Wind Speed Gust Speed Precip Events Conditions
12:15 AM 33.8 °F 27.0 °F 24.8 °F 70% 29.59 in 10.0 mi ESE 8.1 mph - N/A   Overcast
12:30 AM 32.0 °F 25.6 °F 24.8 °F 75% 29.58 in 10.0 mi ESE 6.9 mph - N/A   Scattered Clouds
12:55 AM 32.0 °F 25.6 °F 24.8 °F 75% 29.58 in 10.0 mi East 6.9 mph - N/A   Scattered Clouds
1:15 AM 32.0 °F 26.4 °F 24.8 °F 75% 29.57 in 10.0 mi East 5.8 mph - N/A   Scattered Clouds
1:35 AM 32.0 °F 24.2 °F 24.8 °F 75% 29.57 in 10.0 mi East 9.2 mph - N/A   Scattered Clouds
1:55 AM 32.0 °F 24.8 °F 24.8 °F 75% 29.57 in 10.0 mi East 8.1 mph - N/A   Scattered Clouds
2:15 AM 32.0 °F 27.5 °F 24.8 °F 75% 29.57 in 10.0 mi East 4.6 mph - N/A   Scattered Clouds
2:35 AM 30.2 °F 23.4 °F 24.8 °F 80% 29.56 in 10.0 mi ESE 6.9 mph - N/A   Scattered Clouds
2:55 AM 28.4 °F 23.3 °F 23.0 °F 80% 29.56 in 10.0 mi North 4.6 mph - N/A   Scattered Clouds
3:10 AM 28.4 °F 22.2 °F 23.0 °F 80% 29.57 in 10.0 mi North 5.8 mph - N/A   Scattered Clouds
3:35 AM 28.4 °F 21.2 °F 24.8 °F 86% 29.56 in 10.0 mi NE 6.9 mph - N/A   Scattered Clouds
3:55 AM 28.4 °F 21.2 °F 24.8 °F 86% 29.57 in 10.0 mi North 6.9 mph - N/A   Overcast
4:15 AM 28.4 °F 21.2 °F 24.8 °F 86% 29.57 in 10.0 mi North 6.9 mph - N/A   Mostly Cloudy
4:30 AM 26.6 °F 19.1 °F 23.0 °F 86% 29.58 in 10.0 mi North 6.9 mph - N/A   Scattered Clouds
4:55 AM 26.6 °F 21.2 °F 23.0 °F 86% 29.58 in 10.0 mi NE 4.6 mph - N/A   Clear
5:15 AM 26.6 °F 21.2 °F 23.0 °F 86% 29.58 in 10.0 mi NE 4.6 mph - N/A   Clear
5:35 AM 24.8 °F 17.9 °F 23.0 °F 93% 29.60 in 10.0 mi NNW 5.8 mph - N/A   Clear
5:55 AM 24.8 °F 16.9 °F 23.0 °F 93% 29.60 in 10.0 mi NNW 6.9 mph - N/A   Clear
6:15 AM 23.0 °F 18.4 °F 21.2 °F 93% 29.60 in 10.0 mi NNW 3.5 mph - N/A   Clear
6:35 AM 24.8 °F 19.1 °F 23.0 °F 93% 29.60 in 10.0 mi North 4.6 mph - N/A   Clear
6:55 AM 23.0 °F - 23.0 °F 100% 29.61 in 10.0 mi Calm Calm - N/A   Clear
7:15 AM 23.0 °F - 21.2 °F 93% 29.61 in 10.0 mi Calm Calm - N/A   Clear
7:35 AM 21.2 °F - 21.2 °F 100% 29.62 in 10.0 mi Calm Calm - N/A   Clear
7:55 AM 24.8 °F - 23.0 °F 93% 29.64 in 10.0 mi Calm Calm - N/A   Clear
8:15 AM 26.6 °F - 26.6 °F 100% 29.65 in 10.0 mi Calm Calm - N/A   Mostly Cloudy
8:35 AM 30.2 °F 22.6 °F 26.6 °F 86% 29.67 in 10.0 mi WNW 8.1 mph - N/A   Scattered Clouds
8:55 AM 32.0 °F 24.2 °F 28.4 °F 87% 29.67 in 10.0 mi WNW 9.2 mph - N/A   Scattered Clouds
9:15 AM 33.8 °F - 28.4 °F 81% 29.67 in 10.0 mi Calm Calm - N/A   Clear
9:30 AM 35.6 °F - 28.4 °F 75% 29.67 in 10.0 mi Calm Calm - N/A   Scattered Clouds
9:50 AM 37.4 °F 33.8 °F 28.4 °F 70% 29.67 in 10.0 mi WSW 4.6 mph - N/A   Mostly Cloudy
10:15 AM 41.0 °F 37.1 °F 30.2 °F 65% 29.67 in 10.0 mi WSW 5.8 mph - N/A   Overcast
10:30 AM 42.8 °F 39.3 °F 30.2 °F 61% 29.68 in 10.0 mi West 5.8 mph - N/A   Overcast
10:55 AM 44.6 °F 39.2 °F 30.2 °F 57% 29.69 in 10.0 mi WNW 10.4 mph - N/A   Overcast
11:10 AM 46.4 °F 42.4 °F 30.2 °F 53% 29.69 in 10.0 mi WNW 8.1 mph - N/A   Overcast
11:35 AM 50.0 °F - 32.0 °F 50% 29.73 in 10.0 mi NW 15.0 mph - N/A   Overcast
11:55 AM 50.0 °F - 33.8 °F 54% 29.75 in 10.0 mi North 19.6 mph 27.6 mph N/A   Mostly Cloudy
12:15 PM 50.0 °F - 35.6 °F 58% 29.75 in 10.0 mi NNW 20.7 mph 27.6 mph N/A   Scattered Clouds
12:35 PM 46.4 °F 37.9 °F 33.8 °F 62% 29.76 in 10.0 mi North 25.3 mph 29.9 mph N/A   Clear
12:55 PM 41.0 °F 29.8 °F 30.2 °F 65% 29.78 in 10.0 mi North 29.9 mph 35.7 mph N/A   Clear
1:15 PM 41.0 °F 30.2 °F 30.2 °F 65% 29.78 in 10.0 mi North 27.6 mph 34.5 mph N/A   Scattered Clouds
1:35 PM 41.0 °F 30.7 °F 30.2 °F 65% 29.79 in 10.0 mi North 25.3 mph 35.7 mph N/A   Scattered Clouds
1:55 PM 41.0 °F 30.9 °F 32.0 °F 70% 29.79 in 10.0 mi NNE 24.2 mph 28.8 mph N/A   Scattered Clouds
2:15 PM 39.2 °F 29.0 °F 30.2 °F 70% 29.79 in 10.0 mi NNE 21.9 mph 29.9 mph N/A   Scattered Clouds
2:35 PM 37.4 °F 26.6 °F 30.2 °F 75% 29.79 in 10.0 mi North 21.9 mph 27.6 mph N/A   Scattered Clouds
2:55 PM 37.4 °F 27.8 °F 30.2 °F 75% 29.81 in 10.0 mi North 17.3 mph - N/A   Clear
3:15 PM 37.4 °F 26.4 °F 30.2 °F 75% 29.81 in 10.0 mi NNE 23.0 mph 28.8 mph N/A   Scattered Clouds
3:35 PM 37.4 °F 26.9 °F 30.2 °F 75% 29.81 in 10.0 mi North 20.7 mph - N/A   Clear
3:50 PM 37.4 °F 28.2 °F 30.2 °F 75% 29.82 in 10.0 mi North 16.1 mph 23.0 mph N/A   Clear
4:10 PM 37.4 °F 27.2 °F 30.2 °F 75% 29.84 in 10.0 mi North 19.6 mph 24.2 mph N/A   Scattered Clouds
4:35 PM 35.6 °F 24.8 °F 30.2 °F 81% 29.83 in 10.0 mi NNE 19.6 mph - N/A   Scattered Clouds
4:55 PM 35.6 °F 24.8 °F 30.2 °F 81% 29.84 in 10.0 mi North 19.6 mph - N/A   Scattered Clouds
5:10 PM 33.8 °F 22.8 °F 30.2 °F 87% 29.85 in 10.0 mi North 18.4 mph - N/A   Mostly Cloudy
5:35 PM 33.8 °F 23.5 °F 28.4 °F 81% 29.87 in 10.0 mi NNE 16.1 mph - N/A   Overcast
5:50 PM 32.0 °F 22.1 °F 28.4 °F 87% 29.87 in 10.0 mi NNE 13.8 mph - N/A   Overcast
6:10 PM 32.0 °F 22.1 °F 28.4 °F 87% 29.89 in 10.0 mi NE 13.8 mph 17.3 mph N/A   Overcast
6:35 PM 32.0 °F 21.6 °F 28.4 °F 87% 29.89 in 10.0 mi NE 15.0 mph - N/A   Overcast
6:55 PM 30.2 °F 18.9 °F 28.4 °F 93% 29.91 in 10.0 mi NE 16.1 mph - N/A   Overcast
7:15 PM 30.2 °F 20.2 °F 26.6 °F 86% 29.92 in 10.0 mi NE 12.7 mph - N/A   Overcast
7:35 PM 30.2 °F 19.3 °F 26.6 °F 86% 29.92 in 10.0 mi NE 15.0 mph - N/A   Overcast
7:55 PM 30.2 °F 20.2 °F 26.6 °F 86% 29.95 in 10.0 mi NE 12.7 mph - N/A   Overcast
8:10 PM 30.2 °F 20.2 °F 26.6 °F 86% 29.96 in 10.0 mi NE 12.7 mph - N/A   Overcast
8:35 PM 30.2 °F 20.2 °F 26.6 °F 86% 29.96 in 10.0 mi NE 12.7 mph 18.4 mph N/A   Overcast
8:55 PM 28.4 °F 16.6 °F 26.6 °F 93% 29.97 in 10.0 mi NE 16.1 mph - N/A   Overcast
9:15 PM 28.4 °F 18.0 °F 26.6 °F 93% 29.98 in 10.0 mi NE 12.7 mph - N/A   Overcast
9:35 PM 28.4 °F 16.2 °F 26.6 °F 93% 29.98 in 10.0 mi NE 17.3 mph - N/A   Overcast
9:55 PM 28.4 °F 17.0 °F 24.8 °F 86% 29.99 in 10.0 mi NE 15.0 mph - N/A   Overcast
10:15 PM 28.4 °F 17.0 °F 24.8 °F 86% 29.99 in 10.0 mi ENE 15.0 mph - N/A   Overcast
10:35 PM 26.6 °F 14.7 °F 24.8 °F 93% 30.00 in 10.0 mi NE 15.0 mph - N/A   Overcast
10:55 PM 26.6 °F 14.3 °F 24.8 °F 93% 30.00 in 10.0 mi NE 16.1 mph - N/A   Overcast
11:10 PM 26.6 °F 15.2 °F 24.8 °F 93% 30.00 in 10.0 mi NE 13.8 mph - N/A   Overcast
11:30 PM 23.0 °F 9.6 °F 23.0 °F 100% 30.01 in 10.0 mi NNE 16.1 mph - N/A   Overcast
11:55 PM 23.0 °F 9.2 °F 21.2 °F 93% 30.02 in 10.0 mi NNE 17.3 mph - N/A   Overcast